Preview of NWS' New Version of Forecast
This preview is not operational and should not be used for support decisions.

Regional Weather Roundup (RWR)

Issued by National Weather Service (NWS)

                            
000
ASUS43 KLSX 181107
RWRMO 

WEATHER SUMMARY FOR MISSOURI
NATIONAL WEATHER SERVICE SPRINGFIELD MO
600 AM CDT MON MAR 18 2019

NOTE: "FAIR" INDICATES FEW OR NO CLOUDS BELOW 12,000 FEET WITH NO
       SIGNIFICANT WEATHER AND/OR OBSTRUCTIONS TO VISIBILITY.
       CURRENT SKY AND/OR WEATHER CONDITIONS ARE NOT AVAILABLE FOR
       CHILLICOTHE AND FARMINGTON.

MOZ001>031-035>038-043-044-053-054-181200-
...NORTHERN AND WESTERN MISSOURI...
  
CITY           SKY/WX    TMP DP  RH WIND       PRES   REMARKS
KANSAS CTY INT CLOUDY    35  28  75 N8        30.39S WCI  29          
KANSAS C DTWN  MOCLDY    40  27  59 N6        30.40R                  
LEE'S SUMMIT   MOCLDY    38  29  70 NE5       30.38S                  
ST JOSEPH      CLEAR     31  27  85 N8        30.42R WCI  23          
CHILLICOTHE      N/A     29  26  89 CALM      30.42R                  
KIRKSVILLE     CLEAR     24  22  91 NW3       30.39S                  
     
$$
MOZ066>068-077>081-088>096-101>105-181200-
...SOUTHWEST MISSOURI...
  
CITY           SKY/WX    TMP DP  RH WIND       PRES   REMARKS
SPRINGFIELD    CLOUDY    38  25  59 CALM      30.33R                  
JOPLIN         CLOUDY    41  26  55 E5        30.33S                  
BRANSON        CLOUDY    41  21  45 SE6       30.35R                  
               
$$
MOZ032>034-039>042-045>050-055>058-069>072-181200-
...CENTRAL MISSOURI...  
  
CITY           SKY/WX    TMP DP  RH WIND       PRES   REMARKS
COLUMBIA       PTCLDY    34  26  72 N7        30.37R WCI  28          
JEFFERSON CITY MOCLDY    33  28  81 NW6       30.39R WCI  28          
ROLLA          PTCLDY    32  24  72 CALM      30.35R                  
SEDALIA        CLOUDY    38  32  79 N7        30.39R                  
WHITEMAN AFB   PTCLDY    40  28  61 N3        30.43R                  
WARRENSBURG    CLOUDY    37  30  75 N5        30.39R                  
OSAGE BEACH    CLOUDY    36  30  79 CALM      30.38R                  
               
$$
MOZ051-052-059>065-181200-
...EAST CENTRAL MISSOURI...
  
CITY           SKY/WX    TMP DP  RH WIND       PRES   REMARKS
ST LOUIS INTL  MOCLDY    33  27  78 CALM      30.38R                  
SPIRIT OF STL  CLEAR     29  26  89 CALM      30.38R                  
ST CHARLES     PTCLDY    30  27  88 N3        30.38R                  
                   
$$
MOZ072>076-082>087-097>100-106>115-181200-
...SOUTH CENTRAL AND SOUTHEAST MISSOURI...
  
CITY           SKY/WX    TMP DP  RH WIND       PRES   REMARKS
CAPE GIRARDEAU CLOUDY    36  32  85 SW3       30.36R                  
FARMINGTON     CLOUDY    32  28  85 N3        30.36R                  
POPLAR BLUFF   CLOUDY    41  33  73 N3        30.37R                  
WEST PLAINS    CLOUDY    41  26  55 SE3       30.34S                  
                                       
$$